This is the latest recevied weather packets stored in our database for station/object 9W2GDL-10. If no packets are shown the sender has not sent any weather packets the latest 10 day(s).
| Time | Temp. | Humidity | Pressure | Rain* | Wind** | Luminosity | Snow |
|---|---|---|---|---|---|---|---|
| 1787819679 | 32.78° C | 52% | 1009.5 hPa | - | - | - | - |
| 1787819079 | 32.78° C | 52% | 1009.4 hPa | - | - | - | - |
| 1787818478 | 33.89° C | 57% | 1009.5 hPa | - | - | - | - |
| 1787817877 | 35° C | 61% | 1009.7 hPa | - | - | - | - |
| 1787817276 | 35° C | 62% | 1009.7 hPa | - | - | - | - |
| 1787816676 | 34.44° C | 62% | 1009.7 hPa | - | - | - | - |
| 1787816075 | 34.44° C | 63% | 1009.9 hPa | - | - | - | - |
| 1787815474 | 35° C | 60% | 1009.9 hPa | - | - | - | - |
| 1787814873 | 35.56° C | 60% | 1010 hPa | - | - | - | - |
| 1787814272 | 36.11° C | 57% | 1010.2 hPa | - | - | - | - |
| 1787813672 | 36.11° C | 58% | 1010.5 hPa | - | - | - | - |
| 1787813071 | 36.11° C | 58% | 1010.8 hPa | - | - | - | - |
| 1787812470 | 36.11° C | 58% | 1011 hPa | - | - | - | - |
| 1787811869 | 36.11° C | 58% | 1011.3 hPa | - | - | - | - |
| 1787811268 | 35.56° C | 58% | 1011.3 hPa | - | - | - | - |
| 1787810668 | 35.56° C | 59% | 1011.5 hPa | - | - | - | - |
| 1787810067 | 35.56° C | 59% | 1011.6 hPa | - | - | - | - |
| 1787809466 | 35.56° C | 60% | 1011.7 hPa | - | - | - | - |
| 1787808865 | 35.56° C | 60% | 1011.8 hPa | - | - | - | - |
| 1787808264 | 35.56° C | 60% | 1011.9 hPa | - | - | - | - |
| 1787807663 | 35° C | 60% | 1012.1 hPa | - | - | - | - |
| 1787807063 | 35° C | 60% | 1012.3 hPa | - | - | - | - |
| 1787806462 | 35° C | 60% | 1012.2 hPa | - | - | - | - |
| 1787805861 | 35° C | 60% | 1012.4 hPa | - | - | - | - |
| 1787805260 | 35° C | 60% | 1012.5 hPa | - | - | - | - |
* Rain since midnight (hover to see other rain measurements)
** Current wind speed in m/s (hover to see current wind gust speed)